Location: Demre
(36.2444°N, 29.9850°E)
Time: 10:54:04
(UTC+00:00)

SeaSat 1 - Pass Details

Date: 11 March 2026
Orbit: 736 x 740 km, 108.0° (Epoch: 11 April)

Event Time Altitude Azimuth Distance (km) Brightness Sun altitude
Exits shadow 17:13:48 19° 67° (ENE) 1,719 3.8 -14.9°
Maximum altitude 17:14:37 20° 53° (NE) 1,682 3.9 -15.1°
Drops below altitude 10° 17:18:04 10° 8° (N) 2,250 4.9 -15.8°
Sets 17:20:52 0° 352° (N) 3,178 5.9 -16.3°
